Flag Weather past 2 weeks in Bismarck, North Dakota, U.S.A.

Now
-6 °F

Clear.


Feels Like: -17 °F
Forecast: 1 / 19 °F
Wind: 5 mph from East

Location: Bismarck Municipal Airport

Current Time: Nov 26, 2014 at 8:06:38 PM

Latest Report: Nov 26, 2014 at 6:52 PM


Visibility: 10 mi

Pressure: 30.59 "Hg

Humidity: N/A

Dew point: N/A

Location of BismarckLocation

Historic Weather in Bismarck — Graph

°F

Bismarck temperature yesterday

Maximum temperature yesterday: 33 °F (at 4:52 PM)
Minimum temperature yesterday: 17 °F (at 11:52 PM)
Average temperature yesterday: 28 °F

Past Weeks' High & Low Weather Summary

 TemperatureHumidityPressure
High47 °F (Nov 21, 2:52 PM)97% (Nov 22, 10:52 PM)30.73 "Hg (Nov 22, 10:52 PM)
Low-13 °F (Nov 14, 6:52 AM)29% (Nov 24, 1:52 PM)29.39 "Hg (Nov 22, 2:52 PM)
Average17 °F75%30.13 "Hg
* Reported Nov 11 6:52 PM — Nov 26 6:52 PM, Bismarck, Weather by CustomWeather, © 2014

Note: Actual official high and low records may vary slightly from our data, if they occured in-between our weather recording intervals... More about our weather records

Advertising

Bismarck weather history for previous 24 hours

 ConditionsComfort  
Time TempWeatherWind HumidityBarometerVisibility
6:52 PM
Nov 26
-6 °FClear.5 mphN/A30.59 "Hg10 mi
5:52 PM1 °FPassing clouds.5 mph83%30.58 "Hg10 mi
4:52 PM5 °FPassing clouds.6 mph76%30.56 "Hg10 mi
3:52 PM8 °FSunny.6 mph72%30.53 "Hg10 mi
2:52 PM10 °FCloudy.7 mph69%30.51 "Hg10 mi
1:52 PM11 °FOvercast.3 mph70%30.50 "Hg9 mi
12:52 PM11 °FOvercast.5 mph70%30.50 "Hg8 mi
11:52 AM11 °FOvercast.No wind70%30.49 "Hg10 mi
10:52 AM9 °FLight snow. Mostly cloudy.6 mph73%30.49 "Hg4 mi
10:01 AM8 °FLight snow. Mostly cloudy.6 mph76%30.36 "Hg4 mi
8:52 AM7 °FLight snow. Ice fog.3 mph83%30.45 "Hg2 mi
7:52 AM7 °FLight snow. Overcast.5 mph79%30.42 "Hg5 mi
6:52 AM6 °FOvercast.6 mph79%30.40 "Hg10 mi
5:52 AM6 °FOvercast.12 mph83%30.39 "Hg10 mi
4:52 AM8 °FMostly cloudy.10 mph76%30.37 "Hg10 mi
3:52 AM11 °FOvercast.8 mph81%30.36 "Hg10 mi
2:52 AM13 °FOvercast.12 mph77%30.32 "Hg10 mi
1:52 AM14 °FOvercast.12 mph80%30.28 "Hg10 mi
1:04 AM15 °FMostly cloudy.8 mph77%30.17 "Hg10 mi
12:52 AM15 °FOvercast.6 mph77%30.24 "Hg10 mi
11:52 PM
Nov 25
17 °FMostly cloudy.10 mph80%30.20 "Hg10 mi
10:52 PM19 °FMostly cloudy.18 mph77%30.12 "Hg10 mi
9:52 PM20 °FOvercast.21 mph82%30.06 "Hg10 mi
8:52 PM24 °FLight snow. Overcast.26 mph81%29.96 "Hg4 mi
Weather by CustomWeather, © 2014

See weather overviewHow to use our weather pages